Theta_e
320 313 316 316 305 307 302 305 308 305 308 314 318 317 314 316 313 308 329 334 336 338 342 342 345 345 345 344 344 345 344 345 343 341 339 336 334 332 330 329 329 329 329 329 328 327 325 324 323
315 315 317 311 301 297 299 306 304 309 311 313 313 313 315 312 320 323 327 332 335 340 341 341 342 345 344 343 344 344 343 342 340 338 335 333 331 329 329 328 327 327 327 327 325 325 323 322 321
315 313 309 305 299 296 299 304 305 309 308 309 310 315 315 314 321 323 327 331 336 338 341 340 342 343 342 342 341 340 339 337 335 334 332 330 328 327 327 326 325 324 325 324 324 323 322 320 319
310 310 307 297 296 299 299 301 306 308 307 310 309 310 317 323 322 325 327 328 331 330 333 340 341 341 341 340 338 337 335 334 332 330 328 326 326 326 325 324 323 322 322 321 320 320 320 319 317
310 308 298 295 296 299 300 301 304 306 304 305 306 309 313 322 324 324 324 324 325 326 326 330 336 337 337 336 335 333 331 329 327 326 325 324 324 323 322 322 321 320 319 319 317 317 316 316 316
304 305 294 292 295 299 299 300 301 303 303 304 305 310 313 324 322 321 322 321 322 321 323 324 324 329 331 330 329 328 326 325 325 323 323 322 321 320 320 319 318 318 317 316 315 313 313 313 313
303 298 294 293 295 296 296 300 299 300 302 302 304 303 313 320 321 321 320 320 320 321 320 320 320 321 321 322 322 322 322 321 320 319 318 317 316 315 314 314 314 314 314 313 312 311 309 309 309
304 299 293 292 292 293 296 299 299 299 299 303 304 301 305 318 321 320 319 318 317 318 318 318 317 318 316 316 318 317 315 313 313 313 312 311 311 310 310 310 309 310 310 310 309 308 307 306 305
307 295 291 291 292 292 297 296 298 300 300 305 307 306 315 321 321 318 317 317 316 315 316 316 316 315 314 313 311 313 312 310 309 306 306 308 306 306 305 305 305 305 305 306 306 306 306 307 308
300 294 292 294 294 293 295 296 295 295 299 301 306 310 314 318 318 318 318 315 313 313 312 314 312 312 311 310 307 305 304 303 303 303 304 305 304 302 303 302 302 302 302 304 304 304 306 305 298
298 293 295 294 295 294 295 294 296 294 293 295 295 306 311 313 313 314 316 318 315 316 313 313 310 309 307 304 303 302 302 303 303 303 303 302 303 301 301 300 299 299 303 299 299 299 298 298 297
293 296 297 296 296 295 293 295 293 292 292 299 302 303 311 310 310 313 313 315 316 318 317 313 310 307 305 304 302 302 302 303 303 303 303 302 301 300 299 298 298 297 297 296 296 296 297 297 298
294 294 296 296 296 294 296 293 291 291 294 295 306 304 308 309 311 313 314 316 317 316 317 314 311 307 305 304 302 301 301 300 301 301 301 300 299 299 299 298 298 297 297 296 295 295 295 296 297
296 295 295 296 296 296 293 292 292 291 292 295 304 306 309 310 310 311 312 314 314 316 315 316 312 310 306 303 303 302 301 300 300 299 300 300 299 298 298 298 298 297 297 296 295 294 294 295 296
296 292 294 294 295 294 294 291 290 291 294 293 298 304 308 311 312 310 308 308 308 308 310 313 313 311 307 304 303 303 302 302 300 300 300 300 300 299 297 298 297 297 297 297 296 295 295 295 297
292 291 287 293 294 294 294 287 292 292 291 294 293 301 305 308 307 304 304 303 303 302 303 304 307 310 309 306 304 304 303 301 301 301 300 300 300 299 297 297 297 297 297 296 295 294 293 294 294
293 285 288 290 294 292 292 288 295 295 294 292 294 293 299 302 301 300 301 300 301 301 301 302 303 303 309 308 305 303 302 301 301 300 299 300 301 300 297 297 297 297 296 296 295 294 293 292 293
284 284 289 287 290 290 288 290 292 293 294 292 292 292 294 295 296 298 299 300 300 300 301 301 302 302 304 307 304 302 301 300 300 300 300 301 300 300 298 298 297 297 296 295 294 293 293 292 292
290 288 288 290 290 286 287 285 288 289 289 288 290 291 292 294 296 297 298 299 299 299 299 300 300 301 301 303 300 300 299 299 299 299 301 301 300 300 298 297 297 296 295 294 294 293 292 291 291
289 287 284 288 290 286 285 283 285 287 287 287 287 288 290 292 294 296 296 296 296 296 297 298 300 300 301 302 302 301 300 299 300 301 300 300 300 300 299 298 297 297 295 295 294 293 291 291 291
285 282 281 281 285 286 282 282 283 287 288 288 289 288 289 290 291 293 294 293 293 294 295 297 299 300 300 301 301 300 299 300 300 300 299 299 300 300 299 298 297 296 296 294 294 293 292 289 291
282 285 284 283 279 275 281 275 280 283 284 286 286 285 286 288 290 292 292 292 292 293 295 296 298 299 300 299 298 297 296 296 300 300 298 298 298 298 298 298 296 295 295 294 294 295 293 292 289
282 285 282 280 277 276 277 274 278 283 281 282 283 285 285 287 288 289 291 293 293 294 293 294 295 297 298 297 298 297 296 297 298 297 297 297 297 297 296 296 295 294 294 294 293 293 292 292 290
287 281 280 278 278 273 269 271 275 278 281 281 283 284 285 285 286 288 289 291 291 292 292 292 292 293 295 296 296 295 295 295 296 296 295 295 296 295 295 294 293 292 292 291 291 291 291 291 291
283 281 276 273 274 275 265 271 276 280 282 282 282 282 283 284 284 284 285 285 286 287 289 291 291 291 292 293 293 294 294 294 293 294 295 294 294 293 292 291 290 290 290 289 289 288 288 288 288
279 277 274 266 270 272 266 268 276 282 283 283 283 282 283 283 284 283 284 284 284 286 286 287 288 290 290 290 290 291 292 292 292 292 292 291 291 291 291 289 289 289 289 288 288 287 287 287 287
280 275 276 269 262 266 273 278 279 280 279 281 280 281 281 282 282 282 284 284 285 285 285 286 286 287 289 290 289 289 290 290 290 290 290 289 289 289 288 288 288 288 288 288 287 286 286 286 286
280 279 274 274 265 264 272 270 275 273 271 275 278 278 279 281 281 281 282 283 284 284 285 285 286 285 286 287 288 290 289 289 288 288 288 287 287 287 287 286 287 287 287 287 286 285 286 285 285
275 275 275 275 275 268 266 273 277 270 271 270 271 278 273 274 279 280 281 282 283 283 283 284 284 283 284 285 285 286 289 288 288 286 286 286 287 287 286 286 286 285 285 285 284 284 284 284 284
277 278 279 272 268 271 271 270 275 271 271 271 272 276 276 274 276 277 280 281 282 282 282 282 282 282 283 284 284 284 286 288 286 286 285 286 286 286 285 285 285 285 285 284 283 283 283 282 281
Wind_Speed
16 11 6 3 1 4 12 3 3 5 5 6 6 4 8 8 5 3 1 9 10 10 5 8 6 6 6 7 11 12 15 15 13 13 14 13 13 12 12 12 11 12 12 12 12 12 12 12 12
7 7 2 4 2 4 4 4 7 12 7 5 6 2 6 6 5 4 1 12 10 8 7 9 10 13 14 13 15 15 14 15 13 12 12 13 13 12 13 12 12 11 12 12 11 12 12 12 12
9 6 2 3 3 3 2 8 9 10 4 4 5 9 5 4 5 3 7 9 11 12 9 8 12 14 16 17 17 16 16 15 13 12 12 12 13 12 12 12 11 11 11 12 11 12 12 12 12
4 2 3 2 6 7 10 9 7 7 4 6 6 8 7 9 3 5 7 9 9 11 12 9 13 16 17 15 16 16 15 14 13 13 12 10 12 12 12 11 10 11 11 11 11 11 12 12 11
3 3 2 3 3 6 8 7 6 5 4 8 6 5 6 5 7 8 8 9 9 9 11 13 18 17 17 16 15 14 14 13 12 12 11 10 10 11 11 10 10 10 10 10 10 10 11 11 11
2 2 2 6 5 9 7 6 5 4 5 6 3 7 5 9 7 7 8 9 9 9 9 11 18 18 16 16 15 13 13 12 12 11 11 10 10 11 10 10 10 9 10 10 10 10 9 9 10
4 2 4 6 5 6 5 7 7 7 7 6 7 4 4 9 7 7 7 8 7 8 7 9 9 11 17 16 14 13 12 11 11 10 10 10 11 10 10 9 8 8 8 8 8 9 9 9 9
4 2 1 6 1 5 4 3 5 7 4 1 3 4 5 8 9 7 6 6 6 6 6 7 6 5 7 5 9 10 10 9 9 9 7 7 7 8 8 9 8 8 7 8 8 8 8 6 5
2 2 2 5 6 4 7 4 2 1 1 5 5 5 6 11 10 6 5 4 4 5 4 5 4 4 5 5 4 8 8 7 5 4 1 2 2 3 8 5 5 6 6 6 7 7 8 9 9
3 3 6 7 8 7 5 7 6 4 6 6 7 8 6 5 5 4 4 4 3 4 3 4 4 3 3 4 3 4 3 3 2 2 3 3 4 2 2 3 1 1 3 5 5 6 7 6 4
6 5 4 9 8 7 6 4 6 7 3 9 7 7 6 7 4 4 2 4 4 4 2 2 3 4 3 4 2 1 1 1 2 4 3 1 1 0 2 1 1 1 2 3 4 4 3 4 3
5 7 8 6 4 5 6 7 7 4 4 5 7 6 6 4 2 0 4 5 3 4 4 4 3 2 3 2 1 2 2 2 2 2 2 1 1 0 2 1 2 1 2 3 3 3 4 4 4
8 5 6 3 5 5 7 5 2 4 7 1 5 1 6 3 2 5 4 4 5 2 1 4 5 3 3 2 0 1 1 2 1 0 1 2 1 1 2 2 2 2 2 2 3 4 4 4 5
3 8 6 4 7 3 5 5 3 4 4 1 4 5 6 5 3 4 5 6 2 2 2 2 4 3 4 4 4 3 3 3 2 3 3 3 2 2 2 2 3 3 1 3 3 3 4 4 4
1 5 4 7 6 4 7 2 4 5 3 3 3 5 5 7 7 2 9 9 8 7 7 6 3 5 5 5 5 4 3 3 3 4 5 4 3 3 2 2 2 1 3 5 4 4 3 4 4
3 2 3 4 9 2 6 2 4 4 2 6 3 7 6 8 8 9 7 7 7 7 7 7 6 4 4 5 4 4 4 4 4 3 3 5 4 3 3 2 3 2 3 3 3 3 3 4 4
6 2 5 3 4 5 3 5 2 5 4 3 6 6 7 8 7 9 8 7 7 7 7 8 8 7 7 5 3 3 4 3 3 2 3 4 4 3 2 3 2 1 3 3 2 3 2 3 4
5 4 5 4 5 5 8 6 10 10 9 6 5 6 9 8 9 6 6 6 7 7 8 8 7 9 8 3 1 2 3 3 4 3 3 4 3 4 3 3 3 2 3 4 2 3 3 3 4
5 4 6 6 3 6 7 7 6 9 11 11 10 12 9 9 6 6 6 6 8 8 8 8 8 8 6 2 1 3 4 4 4 4 6 4 3 4 4 3 3 3 3 3 3 2 4 3 1
9 4 6 6 4 5 7 8 9 9 8 8 9 10 9 10 9 8 8 8 8 8 8 8 8 8 7 4 2 2 2 3 2 2 3 5 5 5 4 5 4 3 2 4 4 2 3 3 2
8 4 5 4 11 1 7 4 7 5 9 9 10 9 10 7 6 6 7 7 7 8 8 8 8 8 7 8 4 4 4 4 3 3 3 3 3 4 4 5 4 3 2 3 3 2 3 2 3
1 5 6 6 7 2 6 2 4 8 9 10 9 9 9 9 8 8 8 8 7 6 7 8 8 8 7 8 6 6 4 6 5 4 3 3 3 4 5 4 3 3 3 3 3 3 3 2 4
1 4 4 1 1 4 5 4 5 9 7 8 8 9 9 9 9 9 9 8 7 7 7 7 8 8 8 7 7 5 6 5 4 3 2 3 4 5 5 5 5 4 4 4 4 3 4 3 3
7 3 2 2 2 3 4 4 4 2 5 6 6 9 9 9 10 11 11 11 9 8 8 7 8 7 8 7 7 8 8 8 6 5 4 4 4 4 6 5 4 5 4 3 3 3 4 4 4
5 4 4 6 3 6 3 2 4 7 9 9 9 9 9 9 9 9 10 9 9 9 9 10 9 9 8 8 8 8 8 8 8 7 5 5 4 4 6 6 6 4 5 4 3 4 4 4 3
5 2 4 4 3 5 4 6 3 8 9 9 8 7 8 9 10 9 9 8 9 10 10 10 13 13 9 8 8 7 8 5 6 7 6 5 4 4 4 4 5 5 5 4 4 3 4 5 4
4 4 2 3 1 2 5 1 2 6 7 7 7 8 9 9 9 10 11 11 12 12 11 12 14 15 15 12 10 10 8 9 9 9 7 5 6 4 5 5 6 6 6 5 5 3 5 4 3
2 1 3 2 4 6 6 4 6 5 0 5 7 7 7 7 8 10 11 13 13 13 11 13 14 14 14 16 15 14 12 11 9 7 8 7 6 6 6 6 6 6 6 6 6 4 4 5 4
1 1 2 1 2 4 5 7 4 5 3 1 5 6 3 6 6 7 10 10 11 12 12 12 12 14 15 15 17 18 17 13 11 8 8 7 7 7 7 7 6 6 6 6 5 5 6 5 5
1 3 4 4 6 4 3 9 2 5 4 2 6 5 5 4 5 6 9 10 11 11 12 12 12 13 13 15 16 17 19 17 11 10 8 7 8 7 7 6 6 6 6 6 6 6 5 5 5
Wind_Direction
314 317 309 301 97 198 229 141 97 124 100 57 61 44 98 56 53 23 303 14 348 326 140 91 80 87 99 121 116 108 97 108 100 101 98 89 82 78 74 68 64 58 55 53 47 43 43 41 39
310 308 287 284 239 249 59 86 88 58 77 124 96 342 42 76 50 114 2 358 327 303 36 75 84 90 90 90 89 88 92 91 89 89 90 92 86 75 71 65 58 54 52 49 46 44 39 37 35
263 284 303 294 266 24 127 34 96 92 42 12 118 50 34 60 76 29 12 350 21 29 66 74 86 90 91 84 84 86 83 83 85 81 77 77 81 76 71 65 58 51 48 44 41 38 39 35 30
309 222 262 273 258 55 38 36 360 120 122 44 0 87 96 54 47 30 20 19 38 42 38 63 88 95 92 94 89 86 89 88 88 85 79 78 80 79 74 67 57 51 48 43 40 34 32 31 30
230 266 261 240 247 92 62 26 356 64 79 39 323 88 75 77 78 51 47 42 41 43 50 50 66 71 79 85 88 87 86 86 84 84 78 72 72 76 71 64 57 51 46 40 38 32 31 26 22
272 288 234 224 168 95 81 30 332 22 55 36 68 92 68 116 74 55 55 54 41 48 58 56 58 64 71 79 79 82 85 82 79 77 77 71 64 60 63 59 52 45 41 35 31 29 23 21 22
282 217 330 40 67 112 60 325 30 352 27 58 328 59 95 103 91 79 67 61 54 54 51 58 62 65 67 68 75 78 79 77 80 79 80 78 74 66 55 49 49 46 39 37 31 22 17 14 11
308 303 1 14 79 77 51 352 339 32 64 187 343 43 113 124 113 99 88 70 64 67 55 73 58 54 76 73 71 80 79 84 85 95 94 101 103 91 53 41 34 35 32 28 23 11 0 349 339
300 294 99 32 13 74 43 340 87 238 158 72 45 49 77 119 119 117 104 80 69 62 65 74 83 104 97 97 82 76 87 90 99 90 36 268 270 100 100 66 38 28 14 11 5 359 343 326 293
3 12 44 21 21 24 38 9 337 316 151 129 116 104 110 115 159 142 149 110 98 81 72 112 139 135 139 117 111 93 85 52 62 21 357 13 62 50 83 145 213 293 336 286 338 334 338 8 347
14 51 85 48 22 355 348 11 346 332 336 40 31 104 124 135 185 187 232 103 100 111 157 137 153 132 167 119 149 157 146 192 213 196 196 263 65 285 213 226 228 330 355 355 341 336 351 329 332
112 46 31 29 11 3 17 310 313 36 103 24 26 32 115 139 143 41 25 28 326 217 152 113 63 20 41 41 246 150 184 191 215 109 9 298 260 12 336 342 323 349 328 323 326 320 299 298 301
64 84 75 85 39 29 323 280 34 284 64 64 73 33 120 129 103 90 30 336 285 322 169 161 162 187 165 231 90 269 238 228 133 141 221 298 344 282 307 303 309 298 328 319 323 315 312 301 287
53 70 73 37 5 83 351 303 17 108 56 242 142 129 105 125 97 120 193 228 290 309 268 167 156 197 183 215 204 216 222 198 202 202 202 223 249 232 247 256 263 290 324 328 298 280 285 287 278
149 120 126 20 347 14 308 293 223 85 107 289 130 106 105 146 153 71 40 23 23 6 352 338 266 195 198 221 211 212 223 208 221 209 200 217 221 244 274 270 299 342 340 311 311 304 308 304 293
220 256 130 34 358 350 336 172 121 127 20 335 72 128 122 100 51 62 49 25 15 355 345 339 328 288 238 251 235 214 224 202 228 215 196 205 226 255 266 262 273 36 300 289 307 310 308 307 304
348 75 20 139 53 319 314 300 83 179 222 264 325 112 95 93 95 62 41 21 8 349 357 341 331 317 284 234 258 273 257 228 272 253 216 218 218 249 270 279 273 12 295 292 277 309 302 301 310
359 2 342 46 1 348 298 289 345 336 25 29 355 106 98 88 76 57 40 21 11 2 360 353 343 330 315 285 337 295 280 245 251 230 246 229 203 225 230 267 254 213 275 284 328 307 302 274 265
319 339 345 11 47 351 344 340 32 30 40 31 24 33 50 87 94 74 34 20 22 13 9 354 343 336 334 321 294 276 258 242 240 219 234 220 243 233 233 253 258 223 243 258 280 278 295 296 316
11 345 360 289 36 343 348 327 59 52 57 49 41 28 43 23 28 46 35 23 18 10 357 348 346 338 332 329 306 300 344 306 277 253 220 207 225 235 243 246 261 256 268 293 251 255 305 286 186
55 26 353 311 328 198 318 149 93 92 73 59 48 47 31 50 36 17 19 23 13 7 351 345 340 339 334 338 338 335 328 318 308 284 266 248 249 258 237 263 251 272 247 266 282 294 278 260 305
1 7 319 323 2 291 29 205 152 133 81 64 47 40 37 28 20 20 12 10 359 2 354 338 339 341 340 341 331 316 293 294 287 245 212 203 202 271 257 250 268 250 249 259 264 244 216 283 259
359 328 293 351 282 23 351 65 171 127 80 60 37 40 30 26 25 19 11 4 358 5 349 344 334 338 333 335 324 307 297 291 285 304 281 221 213 226 249 242 257 241 245 243 234 266 250 232 227
284 336 243 276 159 19 231 111 230 82 112 78 48 36 33 31 26 24 16 9 354 350 341 335 329 329 323 322 314 305 299 298 300 293 275 245 227 219 218 222 242 253 245 240 244 256 254 252 261
345 4 341 348 355 225 276 357 247 106 77 60 41 34 25 26 29 22 12 1 350 348 348 348 341 323 317 313 303 295 291 296 292 286 275 258 243 222 212 202 222 229 233 228 239 251 256 253 236
354 52 134 264 298 298 329 256 259 112 66 60 50 46 24 19 21 9 354 348 343 348 346 346 342 327 316 308 299 291 285 274 269 272 275 266 250 239 224 192 218 237 230 232 238 229 244 247 249
326 38 328 81 134 43 236 259 72 94 56 39 40 33 21 8 10 355 354 355 349 350 348 354 344 337 329 312 299 291 276 269 264 260 261 250 256 244 225 213 221 235 231 230 229 235 246 245 244
135 354 31 360 339 296 272 270 234 215 25 355 16 13 8 344 346 354 356 352 348 345 345 343 338 336 331 330 325 305 285 275 267 259 258 251 246 237 232 222 222 225 226 220 220 232 242 235 245
39 38 33 67 147 227 304 264 248 144 159 260 308 329 315 287 334 350 344 340 340 335 337 331 330 332 330 329 325 320 305 277 267 259 253 250 252 239 227 218 223 224 224 226 221 228 237 240 244
293 219 193 141 268 235 200 268 14 134 147 177 275 288 279 279 325 321 330 328 327 322 327 326 328 327 326 326 321 317 311 298 273 265 255 245 253 246 238 233 231 229 232 228 225 230 243 238 241